This demonstration page uses our WeatherBlox Daily Observations layout. Learn more.

40.92945, -100.16068

Hourly Observations for May 11, 2017

Temp ( °F °C ) Dew Point ( °F °C ) Humidity (%) Winds ( mph kmh ) Pressure ( in mb ) Visibility ( mi km ) Precip ( " mm )
12:15 am 00:15 Cloudy 55 12.6 49 9.2 80 80 NNE 13 20 30.03 1017 10 16.09344 0 0
12:35 am 00:35 Cloudy 54 12.2 48 9 81 81 NNE 12 19 30 1016 10 16.09344 0 0
12:55 am 00:55 Cloudy 54 12 48 9 82 82 NNE 12 19 30 1016 10 16.09344 0 0
1:15 am 01:15 Cloudy 54 12 48 9 82 82 NNE 10 17 30.03 1017 10 16.09344 0 0
1:35 am 01:35 Cloudy 53 11.9 48 9 83 83 NNE 6 9 30.03 1017 10 16.09344 0 0
1:55 am 01:55 Cloudy 53 11.7 48 9 84 84 NE 8 13 30.03 1017 10 16.09344 0 0
2:15 am 02:15 Cloudy 53 11.6 48 9 84 84 NNE 8 13 30.03 1017 10 16.09344 0 0
2:35 am 02:35 Cloudy 53 11.5 48 8.9 84 84 NNE 8 13 30.03 1017 10 16.09344 0 0
2:55 am 02:55 Cloudy 53 11.5 48 9 85 85 N 7 11 30.03 1017 10 16.09344 0 0
3:15 am 03:15 Cloudy 53 11.5 48 9.1 85 85 N 8 13 30.03 1017 10 16.09344 0 0
3:35 am 03:35 Cloudy 53 11.5 48 9.1 85 85 N 6 9 30.03 1017 10 16.09344 0 0
3:55 am 03:55 Cloudy 53 11.5 49 9.2 86 86 N 6 9 30.03 1017 10 16.09344 0 0
4:15 am 04:15 Cloudy 53 11.5 49 9.2 86 86 N 7 11 30.03 1017 10 16.09344 0 0
4:35 am 04:35 Cloudy 53 11.5 48 9.1 85 85 N 8 13 30.03 1017 10 16.09344 0 0
4:55 am 04:55 Cloudy 53 11.6 48 9.1 85 85 N 6 9 30.03 1017 10 16.09344 0 0
5:15 am 05:15 Cloudy 53 11.6 49 9.2 85 85 N 6 9 30.06 1018 10 16.09344 0 0
5:35 am 05:35 Cloudy 53 11.6 49 9.3 86 86 N 6 9 30.06 1018 10 16.09344 0 0
5:55 am 05:55 Cloudy 53 11.6 49 9.3 86 86 N 6 9 30.06 1018 10 16.09344 0 0
6:15 am 06:15 Cloudy 53 11.7 48 9.1 84 84 NNE 7 11 30.06 1018 10 16.09344 0 0
6:35 am 06:35 Cloudy 53 11.7 48 9.1 84 84 N 7 11 30.06 1018 10 16.09344 0 0
6:55 am 06:55 Cloudy 53 11.7 48 9.1 84 84 N 9 15 30.06 1018 10 16.09344 0 0
7:15 am 07:15 Cloudy 53 11.9 49 9.3 84 84 N 10 17 30.06 1018 10 16.09344 0 0
7:35 am 07:35 Cloudy 54 12.1 48 9.1 82 82 N 10 17 30.06 1018 10 16.09344 0 0
7:55 am 07:55 Cloudy 54 12.2 49 9.2 82 82 N 10 17 30.06 1018 10 16.09344 0 0
8:15 am 08:15 Cloudy 54 12.2 48 8.7 79 79 NNE 8 13 30.06 1018 10 16.09344 0 0
8:35 am 08:35 Cloudy 55 12.5 47 8.4 76 76 NNE 9 15 30.06 1018 10 16.09344 0 0
8:55 am 08:55 Cloudy 55 12.8 46 7.9 72 72 NNE 10 17 30.06 1018 10 16.09344 0 0
9:15 am 09:15 Cloudy 56 13.1 45 7.4 69 69 NE 13 20 30.06 1018 10 16.09344 0 0
9:35 am 09:35 Cloudy 56 13.6 45 7.4 66 66 NNE 14 22 30.06 1018 10 16.09344 0 0
9:55 am 09:55 Cloudy 57 14 45 7 63 63 NE 13 20 30.09 1019 10 16.09344 0 0
10:15 am 10:15 Cloudy 57 14 44 6.4 60 60 NE 17 28 30.09 1019 10 16.09344 0 0
10:35 am 10:35 Cloudy 60 15.3 45 7.3 59 59 NE 14 22 30.06 1018 10 16.09344 0 0
10:55 am 10:55 Cloudy 59 15.1 44 6.4 56 56 NE 15 24 30.06 1018 10 16.09344 0 0
11:15 am 11:15 Cloudy 61 15.9 46 7.5 58 58 NE 16 26 30.06 1018 10 16.09344 0 0
11:35 am 11:35 Cloudy 61 16.3 45 7 54 54 NE 14 22 30.06 1018 10 16.09344 0 0
11:55 am 11:55 Cloudy 62 16.5 46 7.7 56 56 NE 13 20 30.06 1018 10 16.09344 0 0
12:15 pm 12:15 Cloudy 61 16.3 43 6.3 52 52 NE 16 26 30.06 1018 10 16.09344 0 0
12:35 pm 12:35 Mostly Cloudy 63 17.3 44 6.6 50 50 NE 15 24 30.06 1018 10 16.09344 0 0
12:55 pm 12:55 Partly Cloudy 64 17.9 42 5.3 44 44 NE 15 24 30.03 1017 10 16.09344 0 0
1:15 pm 13:15 Partly Cloudy 65 18.1 40 4.3 40 40 NE 21 33 30.03 1017 10 16.09344 0 0
1:35 pm 13:35 Sunny 65 18.5 40 4.6 40 40 NNE 17 28 30.03 1017 10 16.09344 0 0
1:55 pm 13:55 Sunny 65 18.6 42 5.3 42 42 NNE 16 26 30.03 1017 10 16.09344 0 0
2:15 pm 14:15 Sunny 66 18.7 41 5.1 41 41 NNE 14 22 30.03 1017 10 16.09344 0 0
2:35 pm 14:35 Sunny 66 18.7 40 4.2 38 38 NNE 18 30 30.03 1017 10 16.09344 0 0
2:55 pm 14:55 Sunny 66 19.1 41 4.8 39 39 NNE 16 26 30.03 1017 10 16.09344 0 0
3:15 pm 15:15 Sunny 66 19 40 4.2 38 38 NNE 16 26 30.03 1017 10 16.09344 0 0
3:35 pm 15:35 Sunny 67 19.5 40 4.2 37 37 NNE 20 31 30.03 1017 10 16.09344 0 0
3:55 pm 15:55 Sunny 67 19.5 39 4.1 36 36 NE 15 24 30.03 1017 10 16.09344 0 0
4:15 pm 16:15 Sunny 67 19.5 37 2.8 33 33 NNE 17 28 30.03 1017 10 16.09344 0 0
4:35 pm 16:35 Sunny 67 19.4 37 2.7 33 33 NNE 16 26 30.03 1017 10 16.09344 0 0
4:55 pm 16:55 Sunny 67 19.6 37 2.8 33 33 NNE 17 28 30 1016 10 16.09344 0 0
5:15 pm 17:15 Sunny 67 19.5 37 2.5 32 32 NNE 21 33 30 1016 10 16.09344 0 0
5:35 pm 17:35 Sunny 67 19.2 37 2.8 34 34 NNE 14 22 30 1016 10 16.09344 0 0
5:55 pm 17:55 Sunny 66 19 37 2.7 34 34 NE 16 26 30 1016 10 16.09344 0 0
6:15 pm 18:15 Sunny 66 18.8 37 2.5 34 34 N 16 26 30 1016 10 16.09344 0 0
6:35 pm 18:35 Sunny 65 18.5 37 2.8 35 35 NNE 13 20 30 1016 10 16.09344 0 0
6:55 pm 18:55 Sunny 65 18.3 38 3.1 37 37 NNE 16 26 30 1016 10 16.09344 0 0
7:15 pm 19:15 Sunny 64 18 37 3 37 37 NNE 15 24 30 1016 10 16.09344 0 0
7:35 pm 19:35 Sunny 64 17.5 37 2.9 38 38 NNE 14 22 30 1016 10 16.09344 0 0
7:55 pm 19:55 Sunny 62 16.9 39 3.8 42 42 NNE 10 17 30.03 1017 10 16.09344 0 0
8:15 pm 20:15 Sunny 60 15.8 39 4 46 46 NE 10 17 30.03 1017 10 16.09344 0 0
8:35 pm 20:35 Sunny 58 14.3 40 4.6 52 52 NE 8 13 30.06 1018 10 16.09344 0 0
8:55 pm 20:55 Clear 56 13.3 41 4.8 57 57 NE 8 13 30.09 1019 10 16.09344 0 0
9:15 pm 21:15 Clear 54 12.2 41 5 62 62 NE 8 13 30.09 1019 10 16.09344 0 0
9:35 pm 21:35 Clear 53 11.5 41 5 65 65 NE 7 11 30.09 1019 10 16.09344 0 0
9:55 pm 21:55 Clear 53 11.8 40 4.5 61 61 ENE 8 13 30.09 1019 10 16.09344 0 0
10:15 pm 22:15 Clear 53 11.5 40 4.6 63 63 ENE 7 11 30.12 1020 10 16.09344 0 0
10:35 pm 22:35 Clear 52 11.1 41 5 66 66 ENE 3 6 30.15 1021 10 16.09344 0 0
10:55 pm 22:55 Clear 51 10.6 41 5.1 69 69 NE 3 6 30.15 1021 10 16.09344 0 0
11:15 pm 23:15 Clear 50 10 40 4.5 69 69 NE 3 6 30.15 1021 10 16.09344 0 0
11:35 pm 23:35 Clear 47 8.2 41 4.8 79 79 N 5 7 30.15 1021 10 16.09344 0 0
11:55 pm 23:55 Clear 47 8.2 40 4.7 79 79 NE 5 7 30.15 1021 10 16.09344 0 0

Powered by AerisWeather